When you browse on this site, cookies collect data to enhance your experience and personalize the content and advertising you see.
Visit our Privacy Policy to learn more. By continuing to use the site, you agree to this use of cookies and data.
  • In Österreich
  • Länderverzeichnis
  • Für 7 Tage
  • Wassertemperatur
  • Satellitenkarten
  • Wetterkarte
  • News
  • Widgets
  • user-avatar
    Anmelden

    Stündliche Wetter Sydney

    Heute, 21 Mai, Dienstag

    Zeit Temperatur Niederschläge Wind Luftdruck Luftfeuchtigkeit
    00:00 +17°C° 0 mm 3 m/S 767 mmHg 62%
    01:00 +17°C° 0 mm 3 m/S 767 mmHg 62%
    02:00 +17°C° 0 mm 3 m/S 767 mmHg 63%
    03:00 +16°C° 0 mm 3 m/S 767 mmHg 64%
    04:00 +16°C° 0 mm 3 m/S 767 mmHg 64%
    05:00 +16°C° 0 mm 3 m/S 767 mmHg 65%
    06:00 +16°C° 0 mm 3 m/S 767 mmHg 66%
    07:00 +14°C° 0 mm 3 m/S 768 mmHg 67%
    08:00 +17°C° 0 mm 2 m/S 768 mmHg 61%
    09:00 +20°C° 0 mm 2 m/S 768 mmHg 55%
    10:00 +21°C° 0 mm 2 m/S 768 mmHg 48%
    11:00 +24°C° 0 mm 2 m/S 767 mmHg 44%
    12:00 +26°C° 0 mm 1 m/S 767 mmHg 41%
    13:00 +28°C° 0 mm 1 m/S 767 mmHg 37%
    14:00 +27°C° 0 mm 1 m/S 767 mmHg 40%
    15:00 +27°C° 0 mm 2 m/S 766 mmHg 42%
    16:00 +25°C° 0 mm 2 m/S 766 mmHg 48%
    17:00 +24°C° 0 mm 2 m/S 767 mmHg 52%
    18:00 +23°C° 0 mm 2 m/S 767 mmHg 55%
    19:00 +21°C° 0 mm 2 m/S 767 mmHg 59%
    20:00 +21°C° 0 mm 2 m/S 768 mmHg 60%
    21:00 +20°C° 0 mm 2 m/S 768 mmHg 62%
    22:00 +20°C° 0 mm 2 m/S 768 mmHg 63%
    23:00 +19°C° 0 mm 2 m/S 768 mmHg 64%

    Morgen, 22 Mai, Mittwoch

    Zeit Temperatur Niederschläge Wind Luftdruck Luftfeuchtigkeit
    00:00 +19°C° 0 mm 2 m/S 768 mmHg 66%
    01:00 +18°C° 0 mm 2 m/S 768 mmHg 68%
    02:00 +18°C° 0 mm 2 m/S 768 mmHg 69%
    03:00 +18°C° 0 mm 2 m/S 768 mmHg 70%
    04:00 +17°C° 0 mm 2 m/S 768 mmHg 71%
    05:00 +18°C° 0 mm 1 m/S 769 mmHg 72%
    06:00 +18°C° 0 mm 1 m/S 769 mmHg 73%
    07:00 +18°C° 0 mm 1 m/S 769 mmHg 74%
    08:00 +20°C° 0 mm 1 m/S 769 mmHg 67%
    09:00 +22°C° 0 mm 1 m/S 769 mmHg 59%
    10:00 +23°C° 0 mm 1 m/S 770 mmHg 52%
    11:00 +24°C° 0 mm 1 m/S 769 mmHg 50%
    12:00 +25°C° 0 mm 2 m/S 769 mmHg 48%
    13:00 +26°C° 0 mm 2 m/S 768 mmHg 46%
    14:00 +25°C° 0 mm 3 m/S 768 mmHg 52%
    15:00 +24°C° 0 mm 3 m/S 768 mmHg 57%
    16:00 +22°C° 0 mm 4 m/S 768 mmHg 62%
    17:00 +22°C° 0 mm 3 m/S 769 mmHg 67%
    18:00 +21°C° 0 mm 3 m/S 769 mmHg 73%
    19:00 +20°C° 0 mm 3 m/S 769 mmHg 78%
    20:00 +20°C° 0.2 mm 2 m/S 770 mmHg 80%
    21:00 +19°C° 0.2 mm 2 m/S 770 mmHg 82%
    22:00 +19°C° 0.2 mm 2 m/S 770 mmHg 84%
    23:00 +18°C° 0.5 mm 2 m/S 770 mmHg 86%

    übermorgen, 23 Mai, Donnerstag

    Zeit Temperatur Niederschläge Wind Luftdruck Luftfeuchtigkeit
    00:00 +18°C° 0.5 mm 2 m/S 770 mmHg 87%
    01:00 +18°C° 0.5 mm 2 m/S 770 mmHg 89%
    02:00 +17°C° 0.1 mm 2 m/S 770 mmHg 90%
    03:00 +17°C° 0.1 mm 2 m/S 769 mmHg 90%
    04:00 +17°C° 0.1 mm 3 m/S 769 mmHg 91%
    05:00 +17°C° 0.3 mm 3 m/S 770 mmHg 92%
    06:00 +17°C° 0.3 mm 3 m/S 770 mmHg 92%
    07:00 +16°C° 0.3 mm 3 m/S 770 mmHg 93%
    08:00 +18°C° 0.1 mm 3 m/S 770 mmHg 87%
    09:00 +19°C° 0.1 mm 3 m/S 770 mmHg 81%
    10:00 +21°C° 0.1 mm 3 m/S 770 mmHg 75%
    11:00 +23°C° 0 mm 2 m/S 770 mmHg 68%
    12:00 +24°C° 0 mm 2 m/S 769 mmHg 62%
    13:00 +25°C° 0 mm 2 m/S 768 mmHg 56%
    14:00 +25°C° 0 mm 2 m/S 768 mmHg 58%
    15:00 +24°C° 0 mm 2 m/S 768 mmHg 59%
    16:00 +24°C° 0 mm 2 m/S 767 mmHg 61%
    17:00 +21°C° 0 mm 2 m/S 768 mmHg 67%
    18:00 +20°C° 0 mm 2 m/S 768 mmHg 73%
    19:00 +19°C° 0 mm 2 m/S 768 mmHg 79%
    20:00 +20°C° 0.3 mm 1 m/S 768 mmHg 82%
    21:00 +19°C° 0.3 mm 1 m/S 768 mmHg 85%
    22:00 +19°C° 0.3 mm 1 m/S 768 mmHg 87%
    23:00 +18°C° 0.2 mm 1 m/S 768 mmHg 89%

    24 Mai, Freitag

    Zeit Temperatur Niederschläge Wind Luftdruck Luftfeuchtigkeit
    00:00 +18°C° 0.2 mm 1 m/S 768 mmHg 90%
    01:00 +17°C° 0.2 mm 2 m/S 767 mmHg 91%
    02:00 +16°C° 0 mm 2 m/S 767 mmHg 91%
    03:00 +16°C° 0 mm 2 m/S 767 mmHg 90%
    04:00 +15°C° 0 mm 2 m/S 767 mmHg 89%
    05:00 +15°C° 0 mm 2 m/S 767 mmHg 85%
    06:00 +15°C° 0 mm 2 m/S 767 mmHg 81%
    07:00 +14°C° 0 mm 2 m/S 767 mmHg 77%
    08:00 +16°C° 0 mm 2 m/S 767 mmHg 66%
    09:00 +18°C° 0 mm 2 m/S 767 mmHg 56%
    10:00 +20°C° 0 mm 2 m/S 767 mmHg 45%
    11:00 +21°C° 0 mm 2 m/S 766 mmHg 40%
    12:00 +24°C° 0 mm 1 m/S 766 mmHg 35%
    13:00 +26°C° 0 mm 1 m/S 765 mmHg 29%
    14:00 +26°C° 0 mm 2 m/S 765 mmHg 32%
    15:00 +25°C° 0 mm 2 m/S 764 mmHg 35%
    16:00 +24°C° 0 mm 3 m/S 764 mmHg 38%
    17:00 +22°C° 0 mm 3 m/S 764 mmHg 44%
    18:00 +21°C° 0 mm 3 m/S 765 mmHg 50%
    19:00 +20°C° 0 mm 3 m/S 765 mmHg 56%
    20:00 +19°C° 0 mm 3 m/S 765 mmHg 57%
    21:00 +19°C° 0 mm 3 m/S 765 mmHg 57%
    22:00 +18°C° 0 mm 2 m/S 765 mmHg 57%
    23:00 +18°C° 0 mm 2 m/S 765 mmHg 56%

    25 Mai, Samstag

    Zeit Temperatur Niederschläge Wind Luftdruck Luftfeuchtigkeit
    00:00 +17°C° 0 mm 2 m/S 765 mmHg 54%
    01:00 +17°C° 0 mm 2 m/S 764 mmHg 53%
    02:00 +16°C° 0 mm 2 m/S 764 mmHg 53%
    03:00 +16°C° 0 mm 2 m/S 764 mmHg 54%
    04:00 +16°C° 0 mm 2 m/S 764 mmHg 54%
    05:00 +16°C° 0 mm 2 m/S 764 mmHg 55%
    06:00 +16°C° 0 mm 2 m/S 764 mmHg 56%
    07:00 +15°C° 0 mm 2 m/S 764 mmHg 57%
    08:00 +17°C° 0 mm 2 m/S 764 mmHg 52%
    09:00 +19°C° 0 mm 2 m/S 764 mmHg 47%
    10:00 +21°C° 0 mm 2 m/S 764 mmHg 43%
    11:00 +24°C° 0 mm 2 m/S 763 mmHg 39%
    12:00 +26°C° 0 mm 1 m/S 763 mmHg 35%
    13:00 +27°C° 0 mm 1 m/S 762 mmHg 32%
    14:00 +27°C° 0 mm 2 m/S 762 mmHg 33%
    15:00 +26°C° 0 mm 2 m/S 762 mmHg 35%
    16:00 +25°C° 0 mm 3 m/S 761 mmHg 37%
    17:00 +24°C° 0 mm 3 m/S 761 mmHg 40%
    18:00 +22°C° 0 mm 4 m/S 762 mmHg 42%
    19:00 +22°C° 0 mm 4 m/S 762 mmHg 44%
    20:00 +21°C° 0 mm 4 m/S 762 mmHg 46%
    21:00 +20°C° 0 mm 3 m/S 762 mmHg 47%
    22:00 +19°C° 0 mm 3 m/S 762 mmHg 48%
    23:00 +18°C° 0 mm 3 m/S 761 mmHg 49%

    26 Mai, Sonntag

    Zeit Temperatur Niederschläge Wind Luftdruck Luftfeuchtigkeit
    00:00 +18°C° 0 mm 3 m/S 761 mmHg 50%
    01:00 +17°C° 0 mm 3 m/S 760 mmHg 50%
    02:00 +17°C° 0 mm 4 m/S 760 mmHg 50%
    03:00 +17°C° 0 mm 4 m/S 760 mmHg 49%
    04:00 +17°C° 0 mm 4 m/S 760 mmHg 48%
    05:00 +16°C° 0 mm 5 m/S 760 mmHg 48%
    06:00 +16°C° 0 mm 5 m/S 760 mmHg 48%
    07:00 +16°C° 0 mm 5 m/S 760 mmHg 47%
    08:00 +19°C° 0.1 mm 5 m/S 760 mmHg 44%
    09:00 +21°C° 0.1 mm 5 m/S 760 mmHg 40%
    10:00 +23°C° 0.1 mm 5 m/S 759 mmHg 37%
    11:00 +24°C° 0 mm 6 m/S 759 mmHg 35%
    12:00 +24°C° 0 mm 6 m/S 758 mmHg 34%
    13:00 +26°C° 0 mm 7 m/S 757 mmHg 32%
    14:00 +26°C° 0 mm 7 m/S 757 mmHg 33%
    15:00 +24°C° 0 mm 6 m/S 757 mmHg 34%
    16:00 +23°C° 0 mm 6 m/S 757 mmHg 35%
    17:00 +22°C° 0 mm 6 m/S 758 mmHg 37%
    18:00 +20°C° 0 mm 7 m/S 759 mmHg 40%
    19:00 +17°C° 0 mm 7 m/S 760 mmHg 43%
    20:00 +16°C° 0 mm 7 m/S 760 mmHg 45%
    21:00 +15°C° 0 mm 6 m/S 761 mmHg 47%
    22:00 +14°C° 0 mm 6 m/S 761 mmHg 49%
    23:00 +14°C° 0 mm 6 m/S 761 mmHg 49%
    Mehr zeigen